Regional Weather Roundup
Issued by NWS

Home | Current Version | Previous Version | Graphics & Text | Print | Product List | Glossary On
Versions: 1 2 3 4 5 6 7 8 9 10 11 12 13 14 15 16 17 18 19 20 21 22 23 24 25 26 27 28 29 30 31 32 33 34 35 36 37 38 39 40 41 42 43 44 45 46 47 48 49 50
000
ASUS43 KFSD 202302
RWRSD

WEATHER ROUNDUP FOR SOUTH DAKOTA
NATIONAL WEATHER SERVICE SIOUX FALLS SD
600 PM CDT MON OCT 20 2014

NOTE: "FAIR" INDICATES FEW OR NO CLOUDS BELOW 12,000 FEET WITH NO
SIGNIFICANT WEATHER AND/OR OBSTRUCTIONS TO VISIBILITY.


SDZ001>005-009-010-012>017-210000-
NORTHWEST AND NORTH CENTRAL SOUTH DAKOTA

CITY           SKY/WX    TMP DP  RH WIND       PRES   REMARKS
FAITH            N/A     73  42  32 SE13      29.91F
MOBRIDGE       CLEAR     71  37  28 SE9       29.94F
$$

SDZ012>016-024>037-041>051-057-063-072>074-210000-
SOUTHWEST AND SOUTH CENTRAL SOUTH DAKOTA

CITY           SKY/WX    TMP DP  RH WIND       PRES   REMARKS
RAPID CTY ARPT CLEAR     75  46  35 S12       29.91F
PIERRE         CLEAR     73  39  29 SE12      29.95F
CUSTER         CLEAR     68  36  30 S7        30.05S
PHILIP         CLEAR     78  42  27 SE10      29.90F
PINE RIDGE     CLEAR     77  39  25 S16       29.96S
SPEARFISH      FAIR      72  50  46 E5        29.95S
WINNER         FAIR      75  39  27 SE9       29.99F
$$

SDZ004>011-016>023-039-040-210000-
NORTHEAST SOUTH DAKOTA

CITY           SKY/WX    TMP DP  RH WIND       PRES   REMARKS
ABERDEEN       CLEAR     66  37  34 S5        30.01F
WATERTOWN      CLEAR     64  36  35 CALM      30.03S
SISSETON         N/A     65  40  39 NE6       30.02R
$$

SDZ017-020-022-023-036>040-048>070-210000-
SOUTHEAST SOUTH DAKOTA

CITY           SKY/WX    TMP DP  RH WIND       PRES   REMARKS
SIOUX FALLS    CLEAR     67  37  33 W5        30.03F
HURON          CLEAR     69  32  25 SE6       30.01F
CHAMBERLAIN    CLEAR     70  38  31 SE8       29.99F
MITCHELL       CLEAR     69  36  29 E6        30.03S
YANKTON        CLEAR     68  37  32 CALM      30.04S
$$

ABBREVIATIONS USED IN REMARKS
   TC - TEMPERATURE IN CELSIUS
  WCI - WIND CHILL INDEX
   HX - HEAT INDEX
  VSB - VISIBILITY



USA.gov is the U.S. government's official web portal to all federal, state and local government web resources and services.